AirNav   Pilot Hours Calculator
 
 416 users online  

MU11 Eagle's Landing Airport
Climax Springs, Missouri, USA

GOING TO CLIMAX SPRINGS?


FAA INFORMATION EFFECTIVE 23 MAY 2019

Location

FAA Identifier: MU11
Lat/Long: 38-13-15.1010N / 093-00-55.7050W
38-13.251683N / 093-00.928417W
38.2208614 / -93.0154736
(estimated)
Elevation: 822 ft. / 251 m (estimated)
Variation: 04E (1985)
From city: 7 miles N of CLIMAX SPRINGS, MO
Time zone: UTC -5 (UTC -6 during Standard Time)
Zip code: 65326

Airport Operations

Airport use: Private use. Permission required prior to landing
Activation date: 06/1980
Control tower: no
ARTCC: KANSAS CITY CENTER
FSS: COLUMBIA FLIGHT SERVICE STATION
Attendance: UNATNDD
Wind indicator: no
Segmented circle: no

Airport Communications

WX AWOS-3 at RAW (17 nm NW): 118.325 (660-547-3761)

Nearby radio navigation aids

VOR radial/distance  VOR name  Freq  Var
SHYr299/22.3SUNSHINE VOR/DME108.4000E

 
NDB name  Hdg/Dist  Freq  Var  ID
SEDALIA162/30.028103EDMO -.. -- ---
GOLDEN VALLEY104/32.638801EGLY --. .-.. -.--

Airport Services

Runway Information

Runway 13/31

Dimensions: 1800 x 100 ft. / 549 x 30 m
Surface: turf
RUNWAY 13  RUNWAY 31
Traffic pattern: leftleft

Airport Ownership and Management from official FAA records

Ownership: Privately-owned
Owner: MIKE CESARETTI
P O BOX 1208
BLUE SPRINGS, MO 64015
Phone 816-228-0358

Instrument Procedures

There are no published instrument procedures at MU11.

Some nearby airports with instrument procedures:

K15 - Grand Glaize-Osage Beach Airport (17 nm SE)
KRAW - Warsaw Municipal Airport (17 nm NW)
KOZS - Camdenton Memorial-Lake Regional Airport (21 nm SE)
H79 - Eldon Model Airpark (23 nm E)
KAIZ - Lee C Fine Memorial Airport (23 nm E)
 
Loc | Ops | Rwys | IFR | FBO | Links
Com | Nav | Svcs | Stats | Notes

Kansas City Aviation Department
 
Area around MU11 (Eagle's Landing Airport)
 
Road maps at: MapQuest Bing Google
 
Aerial photo
No photo
 
Sectional chart

 
Airport distance calculator
Flying to Eagle's Landing Airport? Find the distance to fly.

From to MU11

Sunrise and sunset
Times for 25-May-2019
 Local
(UTC-5)
 Zulu
(UTC)
Morning civil twilight05:2410:24
Sunrise05:5510:55
Sunset20:2301:23
Evening civil twilight20:5401:54

Current date and time
Zulu (UTC)  25-May-2019 10:55:56
Local (UTC-5)  25-May-2019 05:55:56
 
METAR
KRAW 
17nm NW 
251035Z AUTO 13011G17KT 10SM -RA SCT009 SCT015 SCT022 A2992 RMK AO2
KOZS 
21nm SE 
251035Z AUTO 08003KT 10SM -RA SCT060 SCT075 OVC110 18/17 A2999 RMK AO2 P0001
KAIZ 
24nm E 
250956Z AUTO 23007KT 10SM OVC100 20/17 A3005 RMK AO2 SLP164 T02000172
KDMO 
31nm N 
250953Z AUTO 18011KT 10SM FEW120 17/17 A2998 RMK AO2 RAE40 SLP145 P0003 T01670167 $
KGLY 
33nm W 
251015Z AUTO 00000KT 10SM FEW043 SCT070 BKN100 18/18 A2992 RMK AO2
TAF
NOTAMs
Click for the latest NOTAMs
NOTAMs are issued by the DoD/FAA and will open in a separate window not controlled by AirNav.

 

 
 

Would you like to see your business listed on this page?

 If your business provides an interesting product or service to pilots, flight crews, aircraft, or users of the Eagle's Landing Airport, you should consider listing it here.  To start the listing process, click on the button below
 
Add a business
 

Other Pages about Eagle's Landing Airport

Update a link
 
Copyright © AirNav, LLC. All rights reserved. Privacy Policy  Contact